Tracking 28915 objects as of 30-May-2024
HD Live streaming from Space Station
objects crossing your sky now

AISTECHSAT-2

Track AISTECHSAT-2 now!
10-day predictions
AISTECHSAT-2 is classified as:


NORAD ID: 43768
Int'l Code: 2018-099L
Perigee: 561.7 km
Apogee: 570.2 km
Inclination: 97.5 °
Period: 95.8 minutes
Semi major axis: 6936 km
RCS: Unknown
Launch date: December 3, 2018
Source: Spain (SPN)
Launch site: AIR FORCE WESTERN TEST RANGE (AFWTR)

Uplink (MHz):
Downlink (MHz): 436.730
Beacon (MHz):
Mode: 4k8*/9k6 FSK
Call sign:
Status: Active

Your satellite tracking list
Your tracking list is empty




NASA's NSSDC Master Catalog

Two Line Element Set (TLE):
1 43768U 18099L   24151.12871048  .00005043  00000-0  38271-3 0  9995
2 43768  97.5364 205.6939 0006105  12.3591 347.7783 15.02631219299415
Source of the keplerian elements: AFSPC